Tracking 18796 objects as of 20-September-2017
HD Live streaming from Space Station
objects crossing your sky now

INTELSAT 6B (PAS 6B)

Track INTELSAT 6B (PAS 6B) now!
INTELSAT 6B (PAS 6B) is classified as:


NORAD ID: 25585
Int'l Code: 1998-075A
Perigee: 36,035.7 km
Apogee: 36,182.9 km
Inclination: 7.4 °
Period: 1,452.3 minutes
Semi major axis: 42480 km
RCS: 21.1435 m2 (large)
Launch date: December 22, 1998
Source: United States (US)
Launch site: FRENCH GUIANA (FRGUI)

voice and video communcations; 32 Ku-band; South America.
aabbcc
Your satellite tracking list
Your tracking list is empty





NASA's NSSDC Master Catalog

Two Line Element Set (TLE):
1 25585U 98075A   17263.18591036 -.00000246  00000-0  00000+0 0  9998
2 25585   7.4464  50.8425 0017324 103.5224 259.6110  0.99156448 68352
Source of the keplerian elements: AFSPC